Weather History for KAKO - February, 2014

Change the Weather History Date:

Wednesday, February 19, 2014

  Actual Average Record
Temperature  
Mean Temperature 44 °F 32 °F  
Max Temperature 61 °F 44 °F 70 °F (1986)
Min Temperature 26 °F 20 °F -11 °F (1942)
Degree Days  
Heating Degree Days 21    
Month to date heating degree days 831  
Cooling Degree Days 0    
Month to date cooling degree days 0  
Moisture  
Dew Point 25 °F    
Average Humidity 56    
Maximum Humidity 92    
Minimum Humidity 19    
Precipitation  
Precipitation 0.04 in 0.02 in 0.52 in (1951)
Month to date precipitation 0.11 0.27  
Year to date precipitation 0.35 0.57  
Sea Level Pressure  
Sea Level Pressure 29.63 in    
Wind  
Wind Speed 20 mph (NW)    
Max Wind Speed 38 mph    
Max Gust Speed 46 mph    
Visibility 7 miles    
Events Rain , Snow    
T = Trace of Precipitation, MM = Missing Value Source: NWS Daily Summary

Daily Weather History Graph

Daily Weather History Graph

Search for Another Location

Airport or City:

Trip Planner

Search our weather history database for the weather conditions in past years. The results will help you decide how hot, cold, wet, or windy it might be!

Date:

Astronomy

Feb. 19, 2014 Rise Set
Actual Time 6:40 AM MST 5:33 PM MST
Civil Twilight 6:12 AM MST 6:00 PM MST
Nautical Twilight 5:41 AM MST 6:32 PM MST
Astronomical Twilight 5:09 AM MST 7:04 PM MST
Moon 10:29 PM MST (2/19) 8:47 AM MST (2/19)
Length of Visible Light 11h 47m
Length of Day
10h 52m
Waning Gibbous, 79% of the Moon is Illuminated
Feb 19
Waning Gibbous
Feb 22
Last Quarter
Mar 1
New
Mar 8
First Quarter
Mar 16
Full

Hourly Weather History & Observations

Time (MST) Temp. Windchill Dew Point Humidity Pressure Visibility Wind Dir Wind Speed Gust Speed Precip Events Conditions
12:53 AM 34.0 °F 24.6 °F 24.1 °F 67% 29.93 in 10.0 mi South 13.8 mph - N/A   Clear
1:53 AM 35.1 °F 26.4 °F 25.0 °F 67% 29.90 in 10.0 mi South 12.7 mph - N/A   Clear
2:53 AM 37.0 °F 27.0 °F 25.0 °F 62% 29.85 in 10.0 mi South 18.4 mph 25.3 mph N/A   Clear
3:53 AM 37.0 °F 26.7 °F 25.0 °F 62% 29.81 in 10.0 mi South 19.6 mph 27.6 mph N/A   Clear
4:53 AM 37.0 °F 27.4 °F 24.1 °F 59% 29.79 in 10.0 mi South 17.3 mph 25.3 mph N/A   Clear
5:53 AM 39.0 °F 29.9 °F 23.0 °F 53% 29.78 in 10.0 mi SSW 17.3 mph - N/A   Clear
6:53 AM 39.0 °F 28.8 °F 21.9 °F 50% 29.77 in 10.0 mi SSW 21.9 mph 32.2 mph N/A   Clear
7:53 AM 39.9 °F 29.7 °F 21.0 °F 47% 29.74 in 10.0 mi SSW 23.0 mph 35.7 mph N/A   Clear
8:53 AM 42.1 °F 33.1 °F 19.9 °F 41% 29.72 in 10.0 mi South 20.7 mph 35.7 mph N/A   Scattered Clouds
9:53 AM 44.1 °F 35.4 °F 21.0 °F 40% 29.68 in 10.0 mi SSW 21.9 mph 34.5 mph N/A   Clear
10:53 AM 48.9 °F - 21.9 °F 35% 29.63 in 10.0 mi SSW 24.2 mph 34.5 mph N/A   Clear
11:53 AM 55.0 °F - 23.0 °F 29% 29.56 in 10.0 mi SSW 17.3 mph 24.2 mph N/A   Clear
12:53 PM 59.0 °F - 21.9 °F 24% 29.50 in 10.0 mi West 13.8 mph 20.7 mph N/A   Clear
1:53 PM 60.1 °F - 21.0 °F 22% 29.45 in 10.0 mi Variable 4.6 mph - N/A   Clear
2:53 PM 60.1 °F - 19.9 °F 21% 29.42 in 10.0 mi NW 8.1 mph - N/A   Clear
3:53 PM 59.0 °F - 17.1 °F 20% 29.42 in 10.0 mi NNW 6.9 mph - N/A   Clear
4:53 PM 55.0 °F - 24.1 °F 30% 29.41 in 10.0 mi NNE 5.8 mph - N/A   Clear
5:53 PM 45.0 °F 41.8 °F 27.0 °F 49% 29.43 in 10.0 mi NNE 5.8 mph - N/A   Clear
6:53 PM 46.9 °F - 28.0 °F 48% 29.44 in 10.0 mi North 5.8 mph - N/A   Overcast
7:53 PM 42.1 °F 31.5 °F 28.0 °F 58% 29.54 in 10.0 mi North 28.8 mph 41.4 mph N/A   Overcast
8:20 PM 41.0 °F 30.0 °F 30.9 °F 67% 29.57 in 10.0 mi North 28.8 mph 39.1 mph 0.00 in Rain Light Rain
8:44 PM 37.9 °F 25.3 °F 32.0 °F 79% 29.57 in 10.0 mi North 32.2 mph 41.4 mph 0.00 in Rain Light Rain
8:53 PM 36.0 °F 22.0 °F 32.0 °F 86% 29.59 in 10.0 mi North 35.7 mph 42.6 mph 0.00 in Snow Light Snow
9:04 PM 33.1 °F 18.0 °F 30.0 °F 89% 29.59 in 2.0 mi North 35.7 mph 44.9 mph 0.00 in Snow Light Snow
9:08 PM 32.0 °F 16.3 °F 30.0 °F 92% 29.60 in 1.2 mi North 36.8 mph 46.0 mph 0.00 in Snow Light Snow
9:15 PM 32.0 °F 16.2 °F 30.0 °F 92% 29.61 in 0.8 mi North 38.0 mph 46.0 mph 0.02 in Snow Light Snow
9:28 PM 30.9 °F 15.1 °F 30.0 °F 96% 29.61 in 0.8 mi North 35.7 mph 43.7 mph 0.02 in Snow Light Snow
9:38 PM 30.0 °F - 28.9 °F 96% 29.62 in - North - - 0.02 in   Unknown
9:53 PM 28.9 °F 13.0 °F 27.0 °F 92% 29.66 in 0.8 mi North 32.2 mph 41.4 mph 0.03 in Snow Light Snow
10:15 PM 28.0 °F 13.0 °F 27.0 °F 96% 29.64 in 0.8 mi North 26.5 mph 41.4 mph 0.00 in Snow Light Snow
10:22 PM 28.0 °F 12.3 °F 26.1 °F 92% 29.65 in 0.8 mi NNW 29.9 mph 40.3 mph 0.00 in Snow Light Snow
10:32 PM 28.0 °F 12.8 °F 26.1 °F 92% 29.65 in 0.8 mi NNW 27.6 mph 35.7 mph 0.00 in Snow Light Snow
10:39 PM 28.0 °F 12.5 °F 26.1 °F 92% 29.65 in 0.8 mi North 28.8 mph 35.7 mph 0.00 in Snow Light Snow
10:53 PM 27.0 °F 10.5 °F 25.0 °F 92% 29.67 in 0.8 mi North 31.1 mph 42.6 mph 0.00 in Snow Light Snow
11:01 PM 27.0 °F 10.3 °F 25.0 °F 92% 29.66 in 0.8 mi North 32.2 mph 42.6 mph 0.00 in Snow Light Snow
11:53 PM 26.1 °F 11.3 °F 24.1 °F 92% 29.68 in 0.8 mi North 23.0 mph - 0.01 in Snow Light Snow